Location: Litvinovka
(48.6667°N, 34.3500°E)
Time: 03:47:57
(UTC+00:00)

Cosmos 2098 Rocket - Pass Details

Date: 18 September 2020
Orbit: 366 x 1185 km, 82.9° (Epoch: 22 October)

Event Time Altitude Azimuth Distance (km) Brightness Sun altitude
Rises 19:11:26 0° 350° (N) 4,072 8.0 -30.9°
Reaches altitude 10° 19:14:15 10° 350° (N) 3,067 7.2 -31.2°
Enters shadow 19:21:14 81° 310° (NW) 1,074 4.1 -32.0°
